Weather in Vysokoye

Russia / Ryazan Oblast     53°45′30″N   41°13′38″E
temp.,
°C
wind,
m/s
gust,
m/s
humid.,
%
clouds,
%
prec.,
mm/h
press.,
hPa
HPBL,
m
31 july, sat
sat3100:00+18w239815 0.0 100583
03:00+18wsw37978 0.0 1005170
06:00+18w39930 0.0 1006289
09:00+24w57650 0.0 1007703
12:00+27w683812 0.0 10082274
15:00+29wsw583314 0.0 10072819
18:00+25w2245100 0.0 100845
21:00+21wnw226443 0.0 101012
1 august, sun
sun100:00+19w227093 0.0 101014
03:00+18wsw2274100 0.0 101221
06:00+19w227033 0.0 101354
09:00+25w23436 0.0 1013590
12:00+29wsw333333 0.0 10131644
15:00+31wsw342827 0.0 10122247
18:00+30sse223767 0.0 101159
21:00+24sse494382 0.0 1011134
2 august, mon
mon200:00+22s411512 0.0 1012215
03:00+22s410566 0.0 1012178
06:00+21ssw310634 0.0 1012235
09:00+28s58446 0.0 1012572
12:00+33ssw6103393 0.0 10102265
15:00+34ssw7102929 0.0 10083269
18:00+23nne3364100 1.0 100756
21:00+25se4652100 1.1 1006121
3 august, tue
tue300:00+23sse51260100 0.1 1005230
03:00+21sw4117185 0.6 1006257
06:00+21sw51277100 0.1 1006450
09:00+24wsw61060100 0.1 1007789
12:00+27ssw6947100 0.0 10071650
15:00+27w81042100 0.0 10071671
18:00+24wnw785361 0.0 10081261
21:00+18nnw39720 0.0 1011463
4 august, wed
wed400:00+15wnw23850 0.0 101249
03:00+15w34850 0.0 101372
06:00+16w25810 0.0 1014153
09:00+22w34520 0.0 1014828
12:00+25wnw45364 0.0 10142116
15:00+26wnw563495 0.0 10152480
18:00+24nw2540100 0.0 1015263
21:00+18n225561 0.0 101713